Location: Larkspur
(54.4391°N, 113.7691°W)
Time: 12:56:56
(UTC+00:00)

Oscar 19 - Pass Details

Date: 30 November 2023
Orbit: 771 x 789 km, 98.9° (Epoch: 01 March)

Event Time Altitude Azimuth Distance (km) Brightness Sun altitude
Rises 14:41:02 0° 9° (N) 3,268 13.7 -7.0°
Reaches altitude 10° 14:44:13 10° 348° (NNW) 2,339 12.7 -6.6°
Maximum altitude 14:47:11 16° 313° (NW) 1,963 12.1 -6.2°
Drops below altitude 10° 14:50:11 10° 277° (W) 2,338 12.5 -5.8°
Sets 14:53:21 0° 256° (WSW) 3,266 13.4 -5.4°
